Location: Holcomb Observatory
(44.4922°N, 73.1654°W)
Time: 19:42:00
(UTC-05:00)

Cosmos 2360 Rocket - Visible Passes

Search period start: 21 January 2018 00:00
Search period end: 31 January 2018 00:00
Orbit: 832 x 847 km, 71.0° (Epoch: 20 January)

Date Brightness Start Highest point End Pass type
(mag) Time Alt. Az. Time Alt. Az. Time Alt. Az.
27 Jan 4.9 20:33:33 10° NNW 20:33:34 10° NNW 20:33:34 10° NNW visible
28 Jan 4.6 20:17:53 10° NNW 20:18:29 13° NNW 20:18:29 13° NNW visible
29 Jan 4.3 20:02:15 10° NNW 20:03:27 16° N 20:03:27 16° N visible
30 Jan 4.0 19:46:35 10° NNW 19:48:29 20° N 19:48:29 20° N visible
